STARLINK-34373

Last updated on Tue Aug 26 2025 00:02:05 GMT+0000 (Coordinated Universal Time)

1 64944U 25158N 25237.61243946 .00028045 00000+0 71840-3 0 9993 2 64944 97.6022 100.2179 0001700 81.9629 278.1809 15.39353510 5812
UTC large
Height (km)
Speed (km/s)
/
Latitude / Longitude
Inclination (degrees)
Orbital Period (minutes)
Azimuth
Elevation
Range (km)
Doppler Factor

Next 0 passes for location: London (51.5072 / 0.1276)

Sorry there are no passes over London.
STARLINK-34373